Flag for Australia Weather past 2 weeks in Currie, Tasmania, Australia

Now
49 °F

Partly sunny.


Feels Like: 42 °F
Forecast: 53 / 58 °F
Wind: 20 mph from Southwest

Location: King Island Airport

Current Time: Oct 1, 2014 at 6:47:13 AM

Latest Report: Oct 1, 2014 at 6:00 AM


Visibility: N/A

Pressure: 30.07 "Hg

Humidity: 64%

Dew point: 37 °F

Location of CurrieLocation

Historic Weather in Currie — Graph

°F

Currie temperature yesterday

Maximum temperature yesterday: 59 °F (at 10:00 AM)
Minimum temperature yesterday: 44 °F (at 8:00 PM)
Average temperature yesterday: 54 °F

Past Weeks' High & Low Weather Summary

 TemperatureHumidityPressure
High73 °F (Sep 28, 12:00 PM)98% (Sep 16, 8:00 AM)30.48 "Hg (Sep 16, 8:00 AM)
Low41 °F (Sep 22, 6:00 AM)40% (Sep 23, 12:00 PM)29.53 "Hg (Sep 30, 11:00 AM)
Average55 °F77%30.05 "Hg
* Reported Sep 16 5:00 AM — Oct 1 5:00 AM, Currie, Weather by CustomWeather, © 2014

Note: Actual official high and low records may vary slightly from our data, if they occured in-between our weather recording intervals... More about our weather records

Advertising

Currie weather history for previous 24 hours

 ConditionsComfort  
Time TempWeatherWind HumidityBarometerVisibility
5:00 AM
Oct 1
50 °FCool.22 mph69%30.03 "HgN/A
4:00 AM49 °FCool.23 mph72%30.00 "HgN/A
3:00 AM50 °FPassing clouds.24 mph58%29.98 "HgN/A
2:00 AM49 °FCool.21 mph71%29.95 "HgN/A
1:00 AM49 °FCool.25 mph66%29.93 "HgN/A
12:00 AM49 °FCool.26 mph61%29.90 "HgN/A
11:00 PM
Sep 30
49 °FCool.25 mph67%29.87 "HgN/A
10:00 PM47 °FCool.24 mph71%29.84 "HgN/A
9:00 PM47 °FSprinkles. Passing clouds.26 mph80%29.81 "HgN/A
8:00 PM44 °FQuite cool.21 mph81%29.79 "HgN/A
7:00 PM50 °FCool.23 mph69%29.75 "HgN/A
6:00 PM51 °FOvercast.26 mph65%29.71 "HgN/A
5:00 PM52 °FCool.23 mph59%29.68 "HgN/A
4:00 PM54 °FCool.26 mph66%29.65 "HgN/A
3:00 PM53 °FOvercast.23 mph68%29.60 "HgN/A
2:00 PM49 °FCool.31 mph92%29.56 "HgN/A
1:00 PM55 °FCool.28 mph83%29.53 "HgN/A
12:00 PM53 °FOvercast.24 mph91%29.54 "Hg5 mi
11:00 AM58 °FCool.31 mph84%29.53 "HgN/A
10:00 AM59 °FCool.29 mph81%29.57 "HgN/A
9:00 AM58 °FOvercast.26 mph85%29.61 "HgN/A
8:00 AM57 °FCool.25 mph85%29.63 "HgN/A
7:00 AM56 °FCool.28 mph86%29.65 "HgN/A
6:00 AM56 °FOvercast.26 mph85%29.66 "HgN/A
Weather by CustomWeather, © 2014

See weather overviewHow to use our weather pages